Regional Weather Roundup
Issued by NWS

Home | Current Version | Previous Version | Text Only | Print | Product List | Glossary On
Versions: 1 2 3 4 5 6 7 8 9 10 11 12 13 14 15 16 17 18 19 20 21 22 23 24 25 26 27 28 29 30 31 32 33 34 35 36 37 38 39 40 41 42 43 44 45 46 47 48 49 50
000
ASUS44 KMEG 060010
RWRTN
TENNESSEE HOURLY STATE WEATHER ROUNDUP
NATIONAL WEATHER SERVICE MEMPHIS TN
700 PM CDT THU MAY 05 2016

TNZ002-004-019-021-049-052-054-088>092-060100-
WEST TENNESSEE

CITY           SKY/WX    TMP DP  RH WIND       PRES   REMARKS
MEMPHIS INTL   CLEAR     68  39  34 N10       29.94S
NWS MEMPHIS      N/A     66 N/A N/A MISG        N/A
JACKSON        PTCLDY    62  42  47 N15       29.96R
DYERSBURG      CLEAR     63  41  45 NE17      29.97S
UNION CITY     MOCLDY    61  43  51 N12       29.98R
LEXINGTON      CLEAR     57  39  51 N8        29.96R
$$

TNZ008-025-027-028-033-062-065-066-060100-
NORTH MIDDLE TENNESSEE

CITY           SKY/WX    TMP DP  RH WIND       PRES   REMARKS
NASHVILLE      MOCLDY    57  40  52 N13G25    29.95R
CLARKSVILLE    PTCLDY    56  42  59 N12       29.97R
SMYRNA         CLOUDY    57  42  57 N18       29.95R
COOKEVILLE     MOCLDY    54  43  66 N5        29.90R
CROSSVILLE     PTCLDY    48  38  68 NW9G17    29.89R
$$

TNZ061-075-076-078-094-096-097-060100-
SOUTH MIDDLE TENNESSEE

CITY           SKY/WX    TMP DP  RH WIND       PRES   REMARKS
TULLAHOMA      PTCLDY    52  37  58 N12       29.93R
WINCHESTER     PTCLDY    54  39  58 N8        29.92R
MCMINNVILLE    CLEAR     54  41  62 NW9       29.91R
COLUMBIA       PTCLDY    55  43  62 N7        29.94R
SHELBYVILLE    PTCLDY    57  43  58 NW12      29.94R
$$

TNZ017-018-042-046-047-060100-
NORTHEAST TENNESSEE

CITY           SKY/WX    TMP DP  RH WIND       PRES   REMARKS
TRI CITIES     LGT RAIN  47  42  83 NW6       29.80R
$$

TNZ012-013-036-069-073-074-060100-
CENTRAL EAST TENNESSEE

CITY           SKY/WX    TMP DP  RH WIND       PRES   REMARKS
KNOXVILLE      CLOUDY    52  39  61 NW7       29.86R
OAK RIDGE      MOCLDY    53  37  54 VRB3      29.88R
GATLINBURG     CLOUDY    52  39  62 NW10      29.84R
$$

TNZ083-085-099-060100-
SOUTHEAST TENNESSEE

CITY           SKY/WX    TMP DP  RH WIND       PRES   REMARKS
CHATTANOOGA    PTCLDY    55  37  50 N14G23    29.89R
$$

SKY/WX REPORTED AS FAIR MEANS FEW OR NO CLOUDS BELOW
12 THOUSAND FEET.





USA.gov is the U.S. government's official web portal to all federal, state and local government web resources and services.